Starlink 36106

operational
NORAD ID: 67018 Int'l Des: 2025-293 Owner: SPXS Country: US Constellation: starlink
LEOCIRCULAR

Starlink 36106について

説明を読み込み中...

リアルタイム位置

3D地球を読み込み中...

次回通過

高度履歴

Altitude vs Time

uPlot chart will show altitude changes over time

軌道要素

1 67018C 25293R 25346.10465278 -.00156120 00000+0 -21327-3 0 3466
2 67018 69.9970 325.9241 0004846 266.8555 204.8480 16.06142102 19
Epoch: Dec 12, 2025 • Age: 56 hours

現在のステータス

高度 268.1 km
速度 7.75 km/s
衛星直下点 46.44°N, 92.49°W
打ち上げ日 Dec 10, 2025
運用期間 3 days
タイプ internet

技術仕様

分類 Payload
質量 575.00 kg
乾燥質量 530.00 kg
総質量 575.00 kg
長さ 0.30 m
直径 4.10 m
スパン 29.00 m
形状 Box + pan
製造者 SPXS
バスタイプ Starlink V2MO
フェーズステータス In Orbit
所有者/国 SPXS/US

大規模コンステレーション

Loading constellations...